Location: Cahas Mountain Overlook
(37.0833°N, 80.1000°W)
Time: 07:21:52
(UTC-04:00)

Tiros 1 - Pass Details

Date: 09 February 2026
Orbit: 618 x 650 km, 48.4° (Epoch: 14 March)

Event Time Altitude Azimuth Distance (km) Brightness Sun altitude
Rises 11:41:53 0° 233° (SW) 2,886 10.7 36.9°
Reaches altitude 10° 11:44:11 10° 233° (SW) 1,979 10.0 37.1°
Maximum altitude 11:48:44 87° 146° (SE) 622 7.8 37.3°
Drops below altitude 10° 11:53:18 10° 56° (NE) 1,977 9.6 37.5°
Sets 11:55:36 0° 56° (NE) 2,885 10.3 37.6°
